This is the latest recevied weather packets stored in our database for station/object DH1FR-13. If no packets are shown the sender has not sent any weather packets the latest 10 day(s).
| Time | Temp. | Humidity | Pressure | Rain* | Wind** | Luminosity | Snow |
|---|---|---|---|---|---|---|---|
| 1777615801 | 8.33° C | 72% | 1032.1 hPa | 0 mm | 0 m/s | - | - |
| 1777615200 | 8.33° C | 72% | 1032 hPa | 0 mm | 0 m/s | - | - |
| 1777614601 | 7.22° C | 75% | 1031.9 hPa | 0 mm | 0 m/s | - | - |
| 1777614001 | 5.56° C | 82% | 1032 hPa | 0 mm | 0 m/s | - | - |
| 1777613401 | 3.33° C | 89% | 1031.7 hPa | 0 mm | 0 m/s | - | - |
| 1777612801 | 2.78° C | 92% | 1032 hPa | 0 mm | 0 m/s | - | - |
| 1777612201 | 1.67° C | 93% | 1031.8 hPa | 0 mm | 0 m/s | - | - |
| 1777611001 | 1.67° C | 93% | 1031.8 hPa | 0 mm | 0 m/s | - | - |
| 1777610401 | 1.11° C | 93% | 1031.7 hPa | 0 mm | 0 m/s | - | - |
| 1777609801 | 1.11° C | 92% | 1031.6 hPa | 0 mm | 0 m/s | - | - |
| 1777609201 | 1.67° C | 92% | 1031.5 hPa | 0 mm | 0 m/s | - | - |
| 1777608601 | 1.11° C | 92% | 1031.4 hPa | 0 mm | 0 m/s | - | - |
| 1777608001 | 1.67° C | 92% | 1031.3 hPa | 0 mm | 0 m/s | - | - |
| 1777607401 | 1.67° C | 92% | 1031.2 hPa | 0 mm | 0 m/s | - | - |
| 1777606201 | 1.67° C | 91% | 1031.3 hPa | 0 mm | 0 m/s | - | - |
| 1777605601 | 1.67° C | 90% | 1031.5 hPa | 0 mm | 0 m/s | - | - |
| 1777605001 | 2.22° C | 90% | 1031.6 hPa | 0 mm | 0 m/s | - | - |
| 1777604401 | 2.22° C | 90% | 1031.7 hPa | 0 mm | 0 m/s | - | - |
| 1777603801 | 2.22° C | 90% | 1031.6 hPa | 0 mm | 0 m/s | - | - |
| 1777603201 | 2.22° C | 89% | 1031.5 hPa | 0 mm | 0 m/s | - | - |
| 1777602601 | 2.78° C | 89% | 1031.7 hPa | 0 mm | 0 m/s | - | - |
| 1777602001 | 2.78° C | 89% | 1031.6 hPa | 0 mm | 0 m/s | - | - |
| 1777601401 | 2.78° C | 89% | 1031.6 hPa | 0 mm | 0 m/s | - | - |
| 1777600801 | 2.78° C | 89% | 1031.5 hPa | 0 mm | 0 m/s | - | - |
| 1777600201 | 2.78° C | 88% | 1031.4 hPa | 0 mm | 0 m/s | - | - |
* Rain latest hour (hover to see other rain measurements)
** Current wind speed in m/s (hover to see current wind gust speed)